"Pseudo-MPEC" for P20JEDr

Created 2018 Oct 13 14:18:06 UT using Find_Orb

Click here for an explanation of pseudo-MPECs

 
 Astrometry: 
     P20JEDr  C2018 10 101=AstrometryJn=[(o#Nsvfj.QXb.5)x\j)*uW4!Xr(nj=P_t$3qF52
     P20JEDr  C2018 10 10EWYv6B^%%\aJeEEvZ!T4s6(c.X#(\jy'GYW]U;4QW^q#^m7_K2lSF52
     P20JEDr  C2018 10 10veS)!C\)jo:(JVD9-Vw$Y5Lpt(A-tN]u9jX:3:wW08_4H^MUn%4MF52
     P20JEDr  C2018 10 10::wiBPpFgk_WISj+!redacted;(C;kSDGIht=\q`$i6u5#@N4D[XF52
     P20JEDr |C2018 10 12fZDcu`.N*/u-QI%4telcVAR3bH`aZ(:Fki`qEcFRno1(iQO,ap^t807
     P20JEDr |C2018 10 122vrWNbKtS;5-fZJ3f?\x!OP26!Kd3ia`Irh1w=?8RLY2wlxp(vq.807
     P20JEDr |C2018 10 12%uo#FZjiu*9Gs$D6C7hppGR=DOhS.j($seeG(88q3vd4oiX_2oM\807
     P20JEDr KC2018 10 12?'][ZTcC3K3oO[wAMH.I3B?VUXBJ,YDg%!q_:Lj'usr;iu#m.Ff!L01
     P20JEDr pC2018 10 12D`%PsIr6)MaBlUI6\D/S=$Bl(5(!r)F2bP,fBoP]kv8:2N_u'VT$L01
     P20JEDr pC2018 10 12H6mIN!o`=yl)VhR,KD(=^nlwiM-CQ/3EeQH9,qJpl-[`2`*NEOCPL01

Station data:
(807) Cerro Tololo Observatory, La Serena  (S30.169136 W70.805900)  Chile.
   1.5-m Ritchey-Chrétien.
(F52) Pan-STARRS 2, Haleakala  (N20.707384 W156.255910)  US/Hawaii.
(L01) Višnjan Observatory, Tičan  (N45.290900 E13.749300)  Croatia.  Observer
   K. Korlević. 1.0-m f/2.9 reflector + CCD.

Orbital elements:  P20JEDr
   Perihelion 2018 Oct 5.184306 +/- 4.56 TT =  4:25:24 (JD 2458396.684306)
Epoch 2018 Oct 12.0 TT = JDT 2458403.5   Earth MOID: 0.6095   AutoNEOCP
M   1.25529 +/- 0.6                 (J2000 ecliptic)
n   0.18417705 +/- 0.0339           Peri.  326.92034 +/- 2.2
a   3.05946648 +/- 0.376            Node    41.17801 +/- 1.0
e   0.4835695 +/- 0.0488            Incl.   18.11835 +/- 1.3
P   5.35                   H 20.9   G  0.15   U 10.5  
q 1.58000173 +/- 0.0495    Q 4.53893124 +/- 0.779
From 10 observations 2018 Oct. 10-12; mean residual 0".48
Residuals in arcseconds: 
181010 F52  .24+  .05+    181012 807  .20+  .17+    181012 L01  .68-  .36+    
181010 F52  .12-  .12+    181012 807  .11-  .10+    181012 L01  1.5+  .78-    
181010 F52  .03-  .04-    181012 807  .09-  .29-    
181010 F52  .09-  .13-    181012 L01  .84-  .44+    

Ephemerides (geocentric):
Date (UTC) HH   RA              Dec         delta   r     elong  mag " sig PA
---- -- -- --  -------------   -----------  ------ ------ -----  --- ---- ---
2018 10 13 14  00 52 56.671   -17 59 09.69  .62448 1.5820 153.7 21.8  3.7   3
2018 10 13 15  00 52 53.976   -17 58 05.74  .62454 1.5820 153.7 21.8  3.9   3
2018 10 13 16  00 52 51.282   -17 57 01.75  .62460 1.5821 153.7 21.8  4.1   3
2018 10 13 17  00 52 48.591   -17 55 57.71  .62465 1.5821 153.7 21.8  4.4   2
2018 10 13 18  00 52 45.901   -17 54 53.62  .62471 1.5821 153.7 21.8  4.6   2
2018 10 13 19  00 52 43.213   -17 53 49.49  .62477 1.5821 153.7 21.8  4.8   2
2018 10 13 20  00 52 40.527   -17 52 45.31  .62483 1.5821 153.7 21.8  5.1   1
2018 10 13 21  00 52 37.843   -17 51 41.09  .62489 1.5822 153.7 21.8  5.3   1
2018 10 13 22  00 52 35.161   -17 50 36.82  .62495 1.5822 153.7 21.8  5.6   1
2018 10 13 23  00 52 32.481   -17 49 32.50  .62501 1.5822 153.7 21.8  5.8   1
2018 10 14 00  00 52 29.803   -17 48 28.14  .62507 1.5822 153.6 21.8  6.1   1
2018 10 14 01  00 52 27.127   -17 47 23.73  .62513 1.5822 153.6 21.8  6.3   0
2018 10 14 02  00 52 24.453   -17 46 19.28  .62519 1.5823 153.6 21.8  6.6   0
2018 10 14 03  00 52 21.781   -17 45 14.78  .62525 1.5823 153.6 21.8  6.9   0
2018 10 14 04  00 52 19.111   -17 44 10.24  .62531 1.5823 153.6 21.8  7.2   0
2018 10 14 05  00 52 16.442   -17 43 05.65  .62537 1.5823 153.6 21.8  7.4   0
2018 10 14 06  00 52 13.776   -17 42 01.02  .62544 1.5824 153.6 21.8  7.7   0
2018 10 14 07  00 52 11.112   -17 40 56.34  .62550 1.5824 153.6 21.8  8.0   0
2018 10 14 08  00 52 08.450   -17 39 51.62  .62556 1.5824 153.6 21.8  8.3   0
2018 10 14 09  00 52 05.791   -17 38 46.85  .62562 1.5824 153.6 21.8  8.6 179
2018 10 14 10  00 52 03.133   -17 37 42.04  .62569 1.5824 153.6 21.8  8.9 179
2018 10 14 11  00 52 00.477   -17 36 37.18  .62575 1.5825 153.6 21.8  9.2 179
2018 10 14 12  00 51 57.823   -17 35 32.28  .62582 1.5825 153.5 21.8  9.5 179
2018 10 14 13  00 51 55.172   -17 34 27.34  .62588 1.5825 153.5 21.8  9.9 179
2018 10 14 14  00 51 52.522   -17 33 22.35  .62595 1.5825 153.5 21.8 10.2 179
2018 10 14 15  00 51 49.875   -17 32 17.31  .62601 1.5826 153.5 21.8 10.5 179
2018 10 14 16  00 51 47.229   -17 31 12.23  .62608 1.5826 153.5 21.8 10.8 179
2018 10 14 17  00 51 44.586   -17 30 07.11  .62614 1.5826 153.5 21.8 11.2 179
2018 10 14 18  00 51 41.945   -17 29 01.95  .62621 1.5826 153.5 21.8 11.5 179
2018 10 14 19  00 51 39.306   -17 27 56.74  .62628 1.5826 153.5 21.8 11.9 179
2018 10 14 20  00 51 36.670   -17 26 51.48  .62634 1.5827 153.5 21.8 12.2 179
2018 10 14 21  00 51 34.035   -17 25 46.19  .62641 1.5827 153.5 21.8 12.6 179
2018 10 14 22  00 51 31.403   -17 24 40.85  .62648 1.5827 153.4 21.8 12.9 179
2018 10 14 23  00 51 28.773   -17 23 35.46  .62655 1.5827 153.4 21.8 13.3 179
2018 10 15 00  00 51 26.145   -17 22 30.04  .62661 1.5828 153.4 21.8 13.7 179
2018 10 15 01  00 51 23.519   -17 21 24.57  .62668 1.5828 153.4 21.8 14.0 179
2018 10 15 02  00 51 20.895   -17 20 19.05  .62675 1.5828 153.4 21.8 14.4 179
2018 10 15 03  00 51 18.274   -17 19 13.50  .62682 1.5828 153.4 21.8 14.8 179
2018 10 15 04  00 51 15.655   -17 18 07.90  .62689 1.5829 153.4 21.8 15.2 179
2018 10 15 05  00 51 13.038   -17 17 02.26  .62696 1.5829 153.4 21.8 15.6 179
2018 10 15 06  00 51 10.424   -17 15 56.57  .62703 1.5829 153.4 21.8 16.0 179
2018 10 15 07  00 51 07.811   -17 14 50.84  .62710 1.5829 153.4 21.8 16.4 179
2018 10 15 08  00 51 05.201   -17 13 45.08  .62718 1.5829 153.3 21.8 16.8 179
2018 10 15 09  00 51 02.593   -17 12 39.26  .62725 1.5830 153.3 21.8 17.2 179
2018 10 15 10  00 50 59.988   -17 11 33.41  .62732 1.5830 153.3 21.8 17.6 178
2018 10 15 11  00 50 57.385   -17 10 27.51  .62739 1.5830 153.3 21.8 18.0 178
2018 10 15 12  00 50 54.784   -17 09 21.58  .62746 1.5830 153.3 21.8 18.4 178
2018 10 15 13  00 50 52.185   -17 08 15.60  .62754 1.5831 153.3 21.8 18.9 178